Weather Roundup
Issued by NWS Chicago, IL

Home | Current Version | Previous Version | Text Only | Print | Product List | Glossary Off
Versions: 1 2 3 4 5 6 7 8 9 10 11 12 13 14 15 16 17 18 19 20 21 22 23 24 25 26 27 28 29 30 31 32 33 34 35 36 37 38 39 40 41 42 43 44 45 46 47 48 49 50

000
NZUS59 KLOT 262210
HRRLOT

CHICAGO AREA WEATHER ROUNDUP
NATIONAL WEATHER SERVICE CHICAGO/ROMEOVILLE IL
400 PM CST FRI DEC 26 2014

NOTE: "FAIR" INDICATES FEW OR NO CLOUDS BELOW 12,000 FEET WITH NO
SIGNIFICANT WEATHER AND/OR OBSTRUCTIONS TO VISIBILITY.

* THESE STATIONS ARE NOT UNDER NWS QUALITY CONTROL. THEY ALSO MAY NOT
  REPORT WEATHER SUCH AS PRECIPITATION OR FOG.

ILZ005-006-012>014-019>023-262300-
NORTHEAST ILLINOIS

CITY           SKY/WX    TMP DP  RH WIND       PRES   REMARKS
OHARE          MOCLDY    47  38  71 S12       29.99R
MIDWAY         MOCLDY    50  39  66 S7        30.01R
AURORA         PTCLDY    49  38  65 S8        29.99S
LANSING*       CLOUDY    49  42  77 S8        30.02S
JOLIET*        PTCLDY    49  40  71 S3        30.00F
WAUKEGAN       MOCLDY    45  36  70 S7        29.98S
DUPAGE AIRPORT PTCLDY    47  38  71 S8        29.99R
WHEELING       PTCLDY    48  38  68 S10       30.01R
KANKAKEE*      MOCLDY    50  44  79 S10       30.03S
MORRIS*        PTCLDY    48  42  79 S7        29.99F
LEWIS AIRPORT* PTCLDY    48  39  72 SW7       30.00F
NORTHERLY IS     N/A     49  38  65 S8          N/A
$$

WIZ051-052-058>065-066-070>072-262300-
SOUTHEAST WISCONSIN

CITY           SKY/WX    TMP DP  RH WIND       PRES   REMARKS
MILWAUKEE      MOCLDY    47  35  63 SW5       29.99R
KENOSHA*       PTCLDY    48  38  68 SW7       29.98S
RACINE*        MOCLDY    48  37  65 SW3       30.00R
BURLINGTON     PTCLDY    44  36  72 W3        29.98R
WAUKESHA       PTCLDY    45  36  70 SW12      29.98R
WEST BEND      MOCLDY    43  32  65 CALM      29.97S
$$

INZ001>003-010>013-019-020-262300-
NORTHWEST INDIANA

CITY           SKY/WX    TMP DP  RH WIND       PRES   REMARKS
GARY*          MOCLDY    52  37  58 SW7       30.03R
MICHIGAN CITY* NOT AVBL
RENSSELAER*    NOT AVBL
VALPARAISO     CLOUDY    49  41  74 S10       30.04R
$$

LMZ740>746-262300-
SOUTHERN LAKE MICHIGAN

STATION/POSITION TIME  SKY/WX   TEMP WIND        PRES    VSBY
                                AIR  DIR/SP/G
                 (UTC)          (F)  (DEG/KT/KT) (MB)    (MI)
HARRISON CRIB    2200            48  200/ 10/ 11   N/A
BURNHAM HARBOR   2200            49  200/  7/ 13   N/A
CALUMET HARBOR   2200            49  200/  8/ 12 1015.0S
BURNS HARBOR     NOT AVBL
MICHIGAN CITY    2200            50  170/ 10/ 12   N/A
$$

ABBREVIATIONS USED IN REMARKS
   TC - TEMPERATURE IN CELSIUS
  WCI - WIND CHILL INDEX
   HX - HEAT INDEX
  VSB - VISIBILITY
$$


USA.gov is the U.S. government's official web portal to all federal, state and local government web resources and services.